Add date Part number Description Manufacture PDF
07-05-2014 CHB75-24S25 ︳ FEATURES CHB75 SERIES 37.5 TO CINCON CHB75-24S25 datasheet
07-05-2014 CHB75-24S33 ︳ FEATURES CHB75 SERIES 37.5 TO CINCON CHB75-24S33 datasheet
07-05-2014 CHB75-12S15 ︳ FEATURES CHB75 SERIES 37.5 TO CINCON CHB75-12S15 datasheet
07-05-2014 CHB75-12S33 ︳ FEATURES CHB75 SERIES 37.5 TO CINCON CHB75-12S33 datasheet
07-05-2014 CHB75-12S24 ︳ FEATURES CHB75 SERIES 37.5 TO CINCON CHB75-12S24 datasheet
07-05-2014 CHB75-12S05 ︳ FEATURES CHB75 SERIES 37.5 TO CINCON CHB75-12S05 datasheet
07-05-2014 CHB75-12S12 ︳ FEATURES CHB75 SERIES 37.5 TO CINCON CHB75-12S12 datasheet
07-05-2014 CHB75-12S25 ︳ FEATURES CHB75 SERIES 37.5 TO CINCON CHB75-12S25 datasheet
07-05-2014 CHB75-24S05 ︳ FEATURES CHB75 SERIES 37.5 TO CINCON CHB75-24S05 datasheet
07-05-2014 CHB75-24S12 ︳ FEATURES CHB75 SERIES 37.5 TO CINCON CHB75-24S12 datasheet
07-05-2014 CHB75-24S15 ︳ FEATURES CHB75 SERIES 37.5 TO CINCON CHB75-24S15 datasheet
07-05-2014 CHB75-24S24 ︳ FEATURES CHB75 SERIES 37.5 TO CINCON CHB75-24S24 datasheet
07-05-2014 CHB75-48S25 ︳ FEATURES CHB75 SERIES 37.5 TO CINCON CHB75-48S25 datasheet
07-05-2014 CHB75-48S33 ︳ FEATURES CHB75 SERIES 37.5 TO CINCON CHB75-48S33 datasheet
07-05-2014 CHB75-48S05 ︳ FEATURES CHB75 SERIES 37.5 TO CINCON CHB75-48S05 datasheet
07-05-2014 CHB75-48S12 ︳ FEATURES CHB75 SERIES 37.5 TO CINCON CHB75-48S12 datasheet
07-05-2014 CHB75-48S15 ︳ FEATURES CHB75 SERIES 37.5 TO CINCON CHB75-48S15 datasheet
07-05-2014 CHB75-48S24 ︳ FEATURES CHB75 SERIES 37.5 TO CINCON CHB75-48S24 datasheet
07-05-2014 IPI80N08S2-07 IPB80N08S2-07 IPP80N08S2-07, IPI80N Infineon Technologies IPI80N08S2-07 datasheet
07-05-2014 IPP80N08S2-07 IPB80N08S2-07 IPP80N08S2-07, IPI80N Infineon Technologies IPP80N08S2-07 datasheet
07-05-2014 HS16-102 THCOM HIGH SPEED LAN 10/100BASE-TX THCOM HS16-102 datasheet
07-05-2014 HS16-102CS THCOM HIGH SPEED LAN 10/100BASE-TX THCOM HS16-102CS datasheet
07-05-2014 MP3394 MP3394 The Future of Analog IC Tech MPS MP3394 datasheet
07-05-2014 MP3301 MP3301 1.3MHz, 700mA, Fixed-Frequen MPS MP3301 datasheet
07-05-2014 MP3304 MP3304 The Future of Analog IC Tech MPS MP3304 datasheet
07-05-2014 MP3305 MP3305 The Future of Analog IC Tech MPS MP3305 datasheet
07-05-2014 MP3306 The Future of Analog IC Technology MPS MP3306 datasheet
07-05-2014 MP3308 MP3308 Step-up White LED Driver wit MPS MP3308 datasheet
07-05-2014 MP3310 MP3310 The Future of Analog IC Tech MPS MP3310 datasheet
07-05-2014 MP3351 MP3351 60V, 2A Integrated Photo Fla MPS MP3351 datasheet
07-05-2014 MP3352 MP3352 60V, 2.5A Integrated Photo F MPS MP3352 datasheet
07-05-2014 MP3356 MP3356 High Voltage Photo Flash Cha MPS MP3356 datasheet
07-05-2014 MP3360 MP3360 Highly Integrated Photo Flas MPS MP3360 datasheet
07-05-2014 MP3384 MP3384 50V, 4-String White LED Driv MPS MP3384 datasheet
07-05-2014 MP3386 MP3386 50V, 6 String White LED Driv MPS MP3386 datasheet
07-05-2014 MP3388 MP3388 50V, 8-String White LED Driv MPS MP3388 datasheet
07-05-2014 MP3391 The Future of Analog IC Technology MPS MP3391 datasheet
07-05-2014 MP3393 MP3393 8-String Step-Up White LED D MPS MP3393 datasheet
07-05-2014 MP3394S MP3394S The Future of Analog IC Tec MPS MP3394S datasheet
07-05-2014 MP3397 MP3397 Step-Up, 4-String Max 350mA/ MPS MP3397 datasheet
07-05-2014 MP3399 MP3399 The Future of Analog IC Tech MPS MP3399 datasheet
07-05-2014 MP1482  03 2A, 20V Synchronous H&M Semiconductor MP1482 datasheet
07-05-2014 SW7230 SW7230 Adaptive 100/120Hz Current R SEMIPOWER SW7230 datasheet
07-05-2014 CXM3569XR SP4T Antenna Switch for GSM / CDMA Sony CXM3569XR datasheet
07-05-2014 GNR32D201K VARISTORS Catalog number system G ETC GNR32D201K datasheet
07-05-2014 GNR32D241K VARISTORS Catalog number system G ETC GNR32D241K datasheet
07-05-2014 GNR32D271K VARISTORS Catalog number system G ETC GNR32D271K datasheet
07-05-2014 GNR32D331K VARISTORS Catalog number system G ETC GNR32D331K datasheet
07-05-2014 GNR32D361K VARISTORS Catalog number system G ETC GNR32D361K datasheet
07-05-2014 GNR32D391K VARISTORS Catalog number system G ETC GNR32D391K datasheet
07-05-2014 GNR32D431K VARISTORS Catalog number system G ETC GNR32D431K datasheet
07-05-2014 GNR32D471K VARISTORS Catalog number system G ETC GNR32D471K datasheet
07-05-2014 GNR32D511K VARISTORS Catalog number system G ETC GNR32D511K datasheet
07-05-2014 GNR32D621K VARISTORS Catalog number system G ETC GNR32D621K datasheet
07-05-2014 GNR32D681K VARISTORS Catalog number system G ETC GNR32D681K datasheet
07-05-2014 GNR32D751K VARISTORS Catalog number system G ETC GNR32D751K datasheet
07-05-2014 GNR32D781K VARISTORS Catalog number system G ETC GNR32D781K datasheet
07-05-2014 GNR32D821K VARISTORS Catalog number system G ETC GNR32D821K datasheet
07-05-2014 GNR32D911K VARISTORS Catalog number system G ETC GNR32D911K datasheet
07-05-2014 GNR32D951K VARISTORS Catalog number system G ETC GNR32D951K datasheet
07-05-2014 GNR32D102K VARISTORS Catalog number system G ETC GNR32D102K datasheet
07-05-2014 GNR32D112K VARISTORS Catalog number system G ETC GNR32D112K datasheet
07-05-2014 VCR-32D201K METAL OXIDE VARISTORS Transient vol HITANO VCR-32D201K datasheet
07-05-2014 VCR-32D241K METAL OXIDE VARISTORS Transient vol HITANO VCR-32D241K datasheet
07-05-2014 VCR-32D271K METAL OXIDE VARISTORS Transient vol HITANO VCR-32D271K datasheet
07-05-2014 VCR-32D331K METAL OXIDE VARISTORS Transient vol HITANO VCR-32D331K datasheet
07-05-2014 VCR-32D361K METAL OXIDE VARISTORS Transient vol HITANO VCR-32D361K datasheet
07-05-2014 VCR-32D391K METAL OXIDE VARISTORS Transient vol HITANO VCR-32D391K datasheet
07-05-2014 VCR-32D431K METAL OXIDE VARISTORS Transient vol HITANO VCR-32D431K datasheet
07-05-2014 VCR-32D471K METAL OXIDE VARISTORS Transient vol HITANO VCR-32D471K datasheet
07-05-2014 VCR-32D511K METAL OXIDE VARISTORS Transient vol HITANO VCR-32D511K datasheet
07-05-2014 VCR-32D621K METAL OXIDE VARISTORS Transient vol HITANO VCR-32D621K datasheet
07-05-2014 VCR-32D681K METAL OXIDE VARISTORS Transient vol HITANO VCR-32D681K datasheet
07-05-2014 VCR-32D751K METAL OXIDE VARISTORS Transient vol HITANO VCR-32D751K datasheet
07-05-2014 VCR-32D781K METAL OXIDE VARISTORS Transient vol HITANO VCR-32D781K datasheet
07-05-2014 VCR-32D821K METAL OXIDE VARISTORS Transient vol HITANO VCR-32D821K datasheet
07-05-2014 VCR-32D911K METAL OXIDE VARISTORS Transient vol HITANO VCR-32D911K datasheet
07-05-2014 VCR-32D951K METAL OXIDE VARISTORS Transient vol HITANO VCR-32D951K datasheet
07-05-2014 VCR-32D102K METAL OXIDE VARISTORS Transient vol HITANO VCR-32D102K datasheet
07-05-2014 VCR-32D112K METAL OXIDE VARISTORS Transient vol HITANO VCR-32D112K datasheet
07-05-2014 VCR-32D122K METAL OXIDE VARISTORS Transient vol HITANO VCR-32D122K datasheet
07-05-2014 VCR-32D142K METAL OXIDE VARISTORS Transient vol HITANO VCR-32D142K datasheet
07-05-2014 VCR-32D162K METAL OXIDE VARISTORS Transient vol HITANO VCR-32D162K datasheet
07-05-2014 32D201K Metal ¡ù 32D SPECIFICATION Maximu ETC 32D201K datasheet
07-05-2014 32D241K Metal ¡ù 32D SPECIFICATION Maximu ETC 32D241K datasheet
07-05-2014 32D271K Metal ¡ù 32D SPECIFICATION Maximu ETC 32D271K datasheet
07-05-2014 32D331K Metal ¡ù 32D SPECIFICATION Maximu ETC 32D331K datasheet
07-05-2014 32D361K Metal ¡ù 32D SPECIFICATION Maximu ETC 32D361K datasheet
07-05-2014 32D391K Metal ¡ù 32D SPECIFICATION Maximu ETC 32D391K datasheet
07-05-2014 32D431K Metal ¡ù 32D SPECIFICATION Maximu ETC 32D431K datasheet
07-05-2014 32D471K Metal ¡ù 32D SPECIFICATION Maximu ETC 32D471K datasheet
07-05-2014 32D511K Metal ¡ù 32D SPECIFICATION Maximu ETC 32D511K datasheet
07-05-2014 32D621K Metal ¡ù 32D SPECIFICATION Maximu ETC 32D621K datasheet
07-05-2014 32D681K Metal ¡ù 32D SPECIFICATION Maximu ETC 32D681K datasheet
07-05-2014 32D751K Metal ¡ù 32D SPECIFICATION Maximu ETC 32D751K datasheet
07-05-2014 32D781K Metal ¡ù 32D SPECIFICATION Maximu ETC 32D781K datasheet
07-05-2014 32D821K Metal ¡ù 32D SPECIFICATION Maximu ETC 32D821K datasheet
07-05-2014 32D911K Metal ¡ù 32D SPECIFICATION Maximu ETC 32D911K datasheet
07-05-2014 32D951K Metal ¡ù 32D SPECIFICATION Maximu ETC 32D951K datasheet
07-05-2014 32D102K Metal ¡ù 32D SPECIFICATION Maximu ETC 32D102K datasheet
07-05-2014 32D112K Metal ¡ù 32D SPECIFICATION Maximu ETC 32D112K datasheet
07-05-2014 32D122K Metal ¡ù 32D SPECIFICATION Maximu ETC 32D122K datasheet
07-05-2014 32D142K Metal ¡ù 32D SPECIFICATION Maximu ETC 32D142K datasheet
07-05-2014 32D162K Metal ¡ù 32D SPECIFICATION Maximu ETC 32D162K datasheet
07-05-2014 MVR05D220K Metal Oxide Varistors MVR Series MERITEK MVR05D220K datasheet
07-05-2014 MVR05D270K Metal Oxide Varistors MVR Series MERITEK MVR05D270K datasheet
07-05-2014 MVR05D330K Metal Oxide Varistors MVR Series MERITEK MVR05D330K datasheet
07-05-2014 MVR05D390K Metal Oxide Varistors MVR Series MERITEK MVR05D390K datasheet
07-05-2014 MVR05D470K Metal Oxide Varistors MVR Series MERITEK MVR05D470K datasheet
07-05-2014 MVR05D560K Metal Oxide Varistors MVR Series MERITEK MVR05D560K datasheet
07-05-2014 MVR05D680K Metal Oxide Varistors MVR Series MERITEK MVR05D680K datasheet
07-05-2014 MVR05D820K Metal Oxide Varistors MVR Series MERITEK MVR05D820K datasheet
07-05-2014 MVR05D101K Metal Oxide Varistors MVR Series MERITEK MVR05D101K datasheet
07-05-2014 MVR05D121K Metal Oxide Varistors MVR Series MERITEK MVR05D121K datasheet
07-05-2014 MVR05D151K Metal Oxide Varistors MVR Series MERITEK MVR05D151K datasheet
07-05-2014 MVR05D181K Metal Oxide Varistors MVR Series MERITEK MVR05D181K datasheet
07-05-2014 MVR05D201K Metal Oxide Varistors MVR Series MERITEK MVR05D201K datasheet
07-05-2014 MVR05D221K Metal Oxide Varistors MVR Series MERITEK MVR05D221K datasheet
07-05-2014 MVR05D241K Metal Oxide Varistors MVR Series MERITEK MVR05D241K datasheet
07-05-2014 MVR05D271K Metal Oxide Varistors MVR Series MERITEK MVR05D271K datasheet
07-05-2014 MVR05D301K Metal Oxide Varistors MVR Series MERITEK MVR05D301K datasheet
07-05-2014 MVR05D331K Metal Oxide Varistors MVR Series MERITEK MVR05D331K datasheet
07-05-2014 MVR05D361K Metal Oxide Varistors MVR Series MERITEK MVR05D361K datasheet
07-05-2014 MVR05D391K Metal Oxide Varistors MVR Series MERITEK MVR05D391K datasheet
07-05-2014 MVR05D431K Metal Oxide Varistors MVR Series MERITEK MVR05D431K datasheet
07-05-2014 MVR05D471K Metal Oxide Varistors MVR Series MERITEK MVR05D471K datasheet
07-05-2014 MVR05D511K Metal Oxide Varistors MVR Series MERITEK MVR05D511K datasheet
07-05-2014 MVR05D561K Metal Oxide Varistors MVR Series MERITEK MVR05D561K datasheet
07-05-2014 MVR07D180K Metal Oxide Varistors MVR Series MERITEK MVR07D180K datasheet
07-05-2014 MVR07D220K Metal Oxide Varistors MVR Series MERITEK MVR07D220K datasheet
07-05-2014 MVR07D270K Metal Oxide Varistors MVR Series MERITEK MVR07D270K datasheet
07-05-2014 MVR07D330K Metal Oxide Varistors MVR Series MERITEK MVR07D330K datasheet
07-05-2014 MVR07D390K Metal Oxide Varistors MVR Series MERITEK MVR07D390K datasheet
07-05-2014 MVR07D470K Metal Oxide Varistors MVR Series MERITEK MVR07D470K datasheet
07-05-2014 MVR07D560K Metal Oxide Varistors MVR Series MERITEK MVR07D560K datasheet
07-05-2014 MVR07D680K Metal Oxide Varistors MVR Series MERITEK MVR07D680K datasheet
07-05-2014 MVR07D820K Metal Oxide Varistors MVR Series MERITEK MVR07D820K datasheet
07-05-2014 MVR07D101K Metal Oxide Varistors MVR Series MERITEK MVR07D101K datasheet
07-05-2014 MVR07D121K Metal Oxide Varistors MVR Series MERITEK MVR07D121K datasheet
07-05-2014 MVR07D151K Metal Oxide Varistors MVR Series MERITEK MVR07D151K datasheet
07-05-2014 MVR07D181K Metal Oxide Varistors MVR Series MERITEK MVR07D181K datasheet
07-05-2014 MVR07D201K Metal Oxide Varistors MVR Series MERITEK MVR07D201K datasheet
07-05-2014 MVR07D221K Metal Oxide Varistors MVR Series MERITEK MVR07D221K datasheet
07-05-2014 MVR07D241K Metal Oxide Varistors MVR Series MERITEK MVR07D241K datasheet
07-05-2014 MVR07D271K Metal Oxide Varistors MVR Series MERITEK MVR07D271K datasheet
07-05-2014 MVR07D301K Metal Oxide Varistors MVR Series MERITEK MVR07D301K datasheet
07-05-2014 MVR07D331K Metal Oxide Varistors MVR Series MERITEK MVR07D331K datasheet
07-05-2014 MVR07D361K Metal Oxide Varistors MVR Series MERITEK MVR07D361K datasheet
07-05-2014 MVR07D391K Metal Oxide Varistors MVR Series MERITEK MVR07D391K datasheet
07-05-2014 MVR07D431K Metal Oxide Varistors MVR Series MERITEK MVR07D431K datasheet
07-05-2014 MVR07D471K Metal Oxide Varistors MVR Series MERITEK MVR07D471K datasheet
07-05-2014 MVR07D511K Metal Oxide Varistors MVR Series MERITEK MVR07D511K datasheet
07-05-2014 MVR07D561K Metal Oxide Varistors MVR Series MERITEK MVR07D561K datasheet
07-05-2014 MVR07D621K Metal Oxide Varistors MVR Series MERITEK MVR07D621K datasheet
07-05-2014 MVR07D681K Metal Oxide Varistors MVR Series MERITEK MVR07D681K datasheet
07-05-2014 MVR10D180K Metal Oxide Varistors MVR Series MERITEK MVR10D180K datasheet
07-05-2014 MVR10D220K Metal Oxide Varistors MVR Series MERITEK MVR10D220K datasheet
07-05-2014 MVR10D270K Metal Oxide Varistors MVR Series MERITEK MVR10D270K datasheet
07-05-2014 MVR10D330K Metal Oxide Varistors MVR Series MERITEK MVR10D330K datasheet
07-05-2014 MVR10D390K Metal Oxide Varistors MVR Series MERITEK MVR10D390K datasheet
07-05-2014 MVR10D470K Metal Oxide Varistors MVR Series MERITEK MVR10D470K datasheet
07-05-2014 MVR10D560K Metal Oxide Varistors MVR Series MERITEK MVR10D560K datasheet
07-05-2014 MVR10D680K Metal Oxide Varistors MVR Series MERITEK MVR10D680K datasheet
07-05-2014 MVR10D820K Metal Oxide Varistors MVR Series MERITEK MVR10D820K datasheet
07-05-2014 MVR10D101K Metal Oxide Varistors MVR Series MERITEK MVR10D101K datasheet
07-05-2014 MVR10D121K Metal Oxide Varistors MVR Series MERITEK MVR10D121K datasheet
07-05-2014 MVR10D151K Metal Oxide Varistors MVR Series MERITEK MVR10D151K datasheet
07-05-2014 MVR10D181K Metal Oxide Varistors MVR Series MERITEK MVR10D181K datasheet
07-05-2014 MVR10D201K Metal Oxide Varistors MVR Series MERITEK MVR10D201K datasheet
07-05-2014 MVR10D221K Metal Oxide Varistors MVR Series MERITEK MVR10D221K datasheet
07-05-2014 MVR10D241K Metal Oxide Varistors MVR Series MERITEK MVR10D241K datasheet
07-05-2014 MVR10D271K Metal Oxide Varistors MVR Series MERITEK MVR10D271K datasheet
07-05-2014 MVR10D301K Metal Oxide Varistors MVR Series MERITEK MVR10D301K datasheet
07-05-2014 MVR10D331K Metal Oxide Varistors MVR Series MERITEK MVR10D331K datasheet
07-05-2014 MVR10D361K Metal Oxide Varistors MVR Series MERITEK MVR10D361K datasheet
07-05-2014 MVR10D391K Metal Oxide Varistors MVR Series MERITEK MVR10D391K datasheet
07-05-2014 MVR10D431K Metal Oxide Varistors MVR Series MERITEK MVR10D431K datasheet
07-05-2014 MVR10D471K Metal Oxide Varistors MVR Series MERITEK MVR10D471K datasheet
07-05-2014 MVR10D511K Metal Oxide Varistors MVR Series MERITEK MVR10D511K datasheet
07-05-2014 MVR10D561K Metal Oxide Varistors MVR Series MERITEK MVR10D561K datasheet
07-05-2014 MVR10D621K Metal Oxide Varistors MVR Series MERITEK MVR10D621K datasheet
07-05-2014 MVR10D681K Metal Oxide Varistors MVR Series MERITEK MVR10D681K datasheet
07-05-2014 MVR10D751K Metal Oxide Varistors MVR Series MERITEK MVR10D751K datasheet
07-05-2014 MVR10D781K Metal Oxide Varistors MVR Series MERITEK MVR10D781K datasheet
07-05-2014 MVR10D821K Metal Oxide Varistors MVR Series MERITEK MVR10D821K datasheet
07-05-2014 MVR10D911K Metal Oxide Varistors MVR Series MERITEK MVR10D911K datasheet
07-05-2014 MVR10D102K Metal Oxide Varistors MVR Series MERITEK MVR10D102K datasheet
07-05-2014 MVR10D112K Metal Oxide Varistors MVR Series MERITEK MVR10D112K datasheet
07-05-2014 MVR14D180K Metal Oxide Varistors MVR Series MERITEK MVR14D180K datasheet
07-05-2014 MVR14D220K Metal Oxide Varistors MVR Series MERITEK MVR14D220K datasheet
07-05-2014 MVR14D270K Metal Oxide Varistors MVR Series MERITEK MVR14D270K datasheet
07-05-2014 MVR14D330K Metal Oxide Varistors MVR Series MERITEK MVR14D330K datasheet
07-05-2014 MVR14D390K Metal Oxide Varistors MVR Series MERITEK MVR14D390K datasheet
07-05-2014 MVR14D470K Metal Oxide Varistors MVR Series MERITEK MVR14D470K datasheet
07-05-2014 MVR14D560K Metal Oxide Varistors MVR Series MERITEK MVR14D560K datasheet
07-05-2014 MVR14D680K Metal Oxide Varistors MVR Series MERITEK MVR14D680K datasheet
07-05-2014 MVR14D820K Metal Oxide Varistors MVR Series MERITEK MVR14D820K datasheet
07-05-2014 MVR14D101K Metal Oxide Varistors MVR Series MERITEK MVR14D101K datasheet
07-05-2014 MVR14D121K Metal Oxide Varistors MVR Series MERITEK MVR14D121K datasheet
07-05-2014 MVR14D151K Metal Oxide Varistors MVR Series MERITEK MVR14D151K datasheet
07-05-2014 MVR14D181K Metal Oxide Varistors MVR Series MERITEK MVR14D181K datasheet
07-05-2014 MVR14D201K Metal Oxide Varistors MVR Series MERITEK MVR14D201K datasheet
07-05-2014 MVR14D221K Metal Oxide Varistors MVR Series MERITEK MVR14D221K datasheet
07-05-2014 MVR14D241K Metal Oxide Varistors MVR Series MERITEK MVR14D241K datasheet
07-05-2014 MVR14D271K Metal Oxide Varistors MVR Series MERITEK MVR14D271K datasheet
07-05-2014 MVR14D301K Metal Oxide Varistors MVR Series MERITEK MVR14D301K datasheet
07-05-2014 MVR14D331K Metal Oxide Varistors MVR Series MERITEK MVR14D331K datasheet
07-05-2014 MVR14D361K Metal Oxide Varistors MVR Series MERITEK MVR14D361K datasheet
07-05-2014 MVR14D391K Metal Oxide Varistors MVR Series MERITEK MVR14D391K datasheet
07-05-2014 MVR14D431K Metal Oxide Varistors MVR Series MERITEK MVR14D431K datasheet
07-05-2014 MVR14D471K Metal Oxide Varistors MVR Series MERITEK MVR14D471K datasheet
07-05-2014 MVR14D511K Metal Oxide Varistors MVR Series MERITEK MVR14D511K datasheet
07-05-2014 MVR14D561K Metal Oxide Varistors MVR Series MERITEK MVR14D561K datasheet
07-05-2014 MVR14D621K Metal Oxide Varistors MVR Series MERITEK MVR14D621K datasheet
07-05-2014 MVR14D681K Metal Oxide Varistors MVR Series MERITEK MVR14D681K datasheet
07-05-2014 MVR14D751K Metal Oxide Varistors MVR Series MERITEK MVR14D751K datasheet
07-05-2014 MVR14D781K Metal Oxide Varistors MVR Series MERITEK MVR14D781K datasheet
07-05-2014 MVR14D821K Metal Oxide Varistors MVR Series MERITEK MVR14D821K datasheet
07-05-2014 MVR14D911K Metal Oxide Varistors MVR Series MERITEK MVR14D911K datasheet
07-05-2014 MVR14D102K Metal Oxide Varistors MVR Series MERITEK MVR14D102K datasheet
07-05-2014 MVR14D112K Metal Oxide Varistors MVR Series MERITEK MVR14D112K datasheet
07-05-2014 MVR20D180K Metal Oxide Varistors MVR Series MERITEK MVR20D180K datasheet
07-05-2014 MVR20D220K Metal Oxide Varistors MVR Series MERITEK MVR20D220K datasheet
07-05-2014 MVR20D270K Metal Oxide Varistors MVR Series MERITEK MVR20D270K datasheet
07-05-2014 MVR20D330K Metal Oxide Varistors MVR Series MERITEK MVR20D330K datasheet
07-05-2014 MVR20D390K Metal Oxide Varistors MVR Series MERITEK MVR20D390K datasheet
07-05-2014 MVR20D470K Metal Oxide Varistors MVR Series MERITEK MVR20D470K datasheet
07-05-2014 MVR20D560K Metal Oxide Varistors MVR Series MERITEK MVR20D560K datasheet
07-05-2014 MVR20D680K Metal Oxide Varistors MVR Series MERITEK MVR20D680K datasheet
07-05-2014 MVR20D820K Metal Oxide Varistors MVR Series MERITEK MVR20D820K datasheet
07-05-2014 MVR20D101K Metal Oxide Varistors MVR Series MERITEK MVR20D101K datasheet
07-05-2014 MVR20D121K Metal Oxide Varistors MVR Series MERITEK MVR20D121K datasheet
07-05-2014 MVR20D151K Metal Oxide Varistors MVR Series MERITEK MVR20D151K datasheet
07-05-2014 MVR20D181K Metal Oxide Varistors MVR Series MERITEK MVR20D181K datasheet
07-05-2014 MVR20D201K Metal Oxide Varistors MVR Series MERITEK MVR20D201K datasheet
07-05-2014 MVR20D221K Metal Oxide Varistors MVR Series MERITEK MVR20D221K datasheet
07-05-2014 MVR20D241K Metal Oxide Varistors MVR Series MERITEK MVR20D241K datasheet
07-05-2014 MVR20D271K Metal Oxide Varistors MVR Series MERITEK MVR20D271K datasheet
07-05-2014 MVR20D301K Metal Oxide Varistors MVR Series MERITEK MVR20D301K datasheet
07-05-2014 MVR20D331K Metal Oxide Varistors MVR Series MERITEK MVR20D331K datasheet
07-05-2014 MVR20D361K Metal Oxide Varistors MVR Series MERITEK MVR20D361K datasheet
07-05-2014 MVR20D391K Metal Oxide Varistors MVR Series MERITEK MVR20D391K datasheet
07-05-2014 MVR20D431K Metal Oxide Varistors MVR Series MERITEK MVR20D431K datasheet
07-05-2014 MVR20D471K Metal Oxide Varistors MVR Series MERITEK MVR20D471K datasheet
07-05-2014 MVR20D511K Metal Oxide Varistors MVR Series MERITEK MVR20D511K datasheet
07-05-2014 MVR20D561K Metal Oxide Varistors MVR Series MERITEK MVR20D561K datasheet
07-05-2014 MVR20D621K Metal Oxide Varistors MVR Series MERITEK MVR20D621K datasheet
07-05-2014 MVR20D681K Metal Oxide Varistors MVR Series MERITEK MVR20D681K datasheet
07-05-2014 MVR20D751K Metal Oxide Varistors MVR Series MERITEK MVR20D751K datasheet
07-05-2014 MVR20D781K Metal Oxide Varistors MVR Series MERITEK MVR20D781K datasheet
07-05-2014 MVR20D821K Metal Oxide Varistors MVR Series MERITEK MVR20D821K datasheet
07-05-2014 MVR20D911K Metal Oxide Varistors MVR Series MERITEK MVR20D911K datasheet
07-05-2014 MVR20D102K Metal Oxide Varistors MVR Series MERITEK MVR20D102K datasheet
07-05-2014 MVR20D112K Metal Oxide Varistors MVR Series MERITEK MVR20D112K datasheet
07-05-2014 MVR25D201K Metal Oxide Varistors MVR Series MERITEK MVR25D201K datasheet
07-05-2014 MVR25D221K Metal Oxide Varistors MVR Series MERITEK MVR25D221K datasheet
07-05-2014 MVR25D241K Metal Oxide Varistors MVR Series MERITEK MVR25D241K datasheet
07-05-2014 MVR25D271K Metal Oxide Varistors MVR Series MERITEK MVR25D271K datasheet
07-05-2014 MVR25D301K Metal Oxide Varistors MVR Series MERITEK MVR25D301K datasheet
07-05-2014 MVR25D331K Metal Oxide Varistors MVR Series MERITEK MVR25D331K datasheet
07-05-2014 MVR25D361K Metal Oxide Varistors MVR Series MERITEK MVR25D361K datasheet
07-05-2014 MVR25D391K Metal Oxide Varistors MVR Series MERITEK MVR25D391K datasheet
07-05-2014 MVR25D431K Metal Oxide Varistors MVR Series MERITEK MVR25D431K datasheet
07-05-2014 MVR25D471K Metal Oxide Varistors MVR Series MERITEK MVR25D471K datasheet
07-05-2014 MVR25D511K Metal Oxide Varistors MVR Series MERITEK MVR25D511K datasheet
07-05-2014 MVR25D561K Metal Oxide Varistors MVR Series MERITEK MVR25D561K datasheet
07-05-2014 MVR25D621K Metal Oxide Varistors MVR Series MERITEK MVR25D621K datasheet
07-05-2014 MVR25D681K Metal Oxide Varistors MVR Series MERITEK MVR25D681K datasheet
07-05-2014 MVR25D751K Metal Oxide Varistors MVR Series MERITEK MVR25D751K datasheet
07-05-2014 MVR25D781K Metal Oxide Varistors MVR Series MERITEK MVR25D781K datasheet
07-05-2014 MVR25D821K Metal Oxide Varistors MVR Series MERITEK MVR25D821K datasheet
07-05-2014 MVR25D911K Metal Oxide Varistors MVR Series MERITEK MVR25D911K datasheet
07-05-2014 MVR25D102K Metal Oxide Varistors MVR Series MERITEK MVR25D102K datasheet
07-05-2014 MVR25D112K Metal Oxide Varistors MVR Series MERITEK MVR25D112K datasheet
07-05-2014 MVR32D201K Metal Oxide Varistors MVR Series MERITEK MVR32D201K datasheet
07-05-2014 MVR32D221K Metal Oxide Varistors MVR Series MERITEK MVR32D221K datasheet
07-05-2014 MVR32D241K Metal Oxide Varistors MVR Series MERITEK MVR32D241K datasheet
07-05-2014 MVR32D271K Metal Oxide Varistors MVR Series MERITEK MVR32D271K datasheet
07-05-2014 MVR32D301K Metal Oxide Varistors MVR Series MERITEK MVR32D301K datasheet
07-05-2014 MVR32D331K Metal Oxide Varistors MVR Series MERITEK MVR32D331K datasheet
07-05-2014 MVR32D361K Metal Oxide Varistors MVR Series MERITEK MVR32D361K datasheet
07-05-2014 MVR32D391K Metal Oxide Varistors MVR Series MERITEK MVR32D391K datasheet
07-05-2014 MVR32D431K Metal Oxide Varistors MVR Series MERITEK MVR32D431K datasheet
07-05-2014 MVR32D471K Metal Oxide Varistors MVR Series MERITEK MVR32D471K datasheet
07-05-2014 MVR32D511K Metal Oxide Varistors MVR Series MERITEK MVR32D511K datasheet
07-05-2014 MVR32D561K Metal Oxide Varistors MVR Series MERITEK MVR32D561K datasheet
07-05-2014 MVR32D621K Metal Oxide Varistors MVR Series MERITEK MVR32D621K datasheet
07-05-2014 MVR32D681K Metal Oxide Varistors MVR Series MERITEK MVR32D681K datasheet
07-05-2014 MVR32D751K Metal Oxide Varistors MVR Series MERITEK MVR32D751K datasheet
07-05-2014 MVR32D781K Metal Oxide Varistors MVR Series MERITEK MVR32D781K datasheet
07-05-2014 MVR32D821K Metal Oxide Varistors MVR Series MERITEK MVR32D821K datasheet
07-05-2014 MVR32D911K Metal Oxide Varistors MVR Series MERITEK MVR32D911K datasheet
07-05-2014 MVR32D102K Metal Oxide Varistors MVR Series MERITEK MVR32D102K datasheet
07-05-2014 MVR32D112K Metal Oxide Varistors MVR Series MERITEK MVR32D112K datasheet
07-05-2014 MVR32D122K Metal Oxide Varistors MVR Series MERITEK MVR32D122K datasheet
07-05-2014 MVR34S201K Metal Oxide Varistors MVR Series MERITEK MVR34S201K datasheet
07-05-2014 MVR34S221K Metal Oxide Varistors MVR Series MERITEK MVR34S221K datasheet
07-05-2014 MVR34S241K Metal Oxide Varistors MVR Series MERITEK MVR34S241K datasheet
07-05-2014 MVR34S271K Metal Oxide Varistors MVR Series MERITEK MVR34S271K datasheet
07-05-2014 MVR34S301K Metal Oxide Varistors MVR Series MERITEK MVR34S301K datasheet
07-05-2014 MVR34S331K Metal Oxide Varistors MVR Series MERITEK MVR34S331K datasheet
07-05-2014 MVR34S361K Metal Oxide Varistors MVR Series MERITEK MVR34S361K datasheet
07-05-2014 MVR34S391K Metal Oxide Varistors MVR Series MERITEK MVR34S391K datasheet
07-05-2014 MVR34S431K Metal Oxide Varistors MVR Series MERITEK MVR34S431K datasheet
07-05-2014 MVR34S471K Metal Oxide Varistors MVR Series MERITEK MVR34S471K datasheet
07-05-2014 MVR34S511K Metal Oxide Varistors MVR Series MERITEK MVR34S511K datasheet
07-05-2014 MVR34S561K Metal Oxide Varistors MVR Series MERITEK MVR34S561K datasheet
07-05-2014 MVR34S621K Metal Oxide Varistors MVR Series MERITEK MVR34S621K datasheet
07-05-2014 MVR34S681K Metal Oxide Varistors MVR Series MERITEK MVR34S681K datasheet
07-05-2014 MVR34S751K Metal Oxide Varistors MVR Series MERITEK MVR34S751K datasheet
07-05-2014 MVR34S781K Metal Oxide Varistors MVR Series MERITEK MVR34S781K datasheet
07-05-2014 MVR34S821K Metal Oxide Varistors MVR Series MERITEK MVR34S821K datasheet
07-05-2014 MVR34S911K Metal Oxide Varistors MVR Series MERITEK MVR34S911K datasheet
07-05-2014 MVR34S951K Metal Oxide Varistors MVR Series MERITEK MVR34S951K datasheet
07-05-2014 MVR34S102K Metal Oxide Varistors MVR Series MERITEK MVR34S102K datasheet
07-05-2014 MVR34S112K Metal Oxide Varistors MVR Series MERITEK MVR34S112K datasheet
07-05-2014 MVR34S122K Metal Oxide Varistors MVR Series MERITEK MVR34S122K datasheet
07-05-2014 MVR53D201K Metal Oxide Varistors MVR Series MERITEK MVR53D201K datasheet
07-05-2014 MVR53D221K Metal Oxide Varistors MVR Series MERITEK MVR53D221K datasheet
07-05-2014 MVR53D241K Metal Oxide Varistors MVR Series MERITEK MVR53D241K datasheet
07-05-2014 MVR53D271K Metal Oxide Varistors MVR Series MERITEK MVR53D271K datasheet
07-05-2014 MVR53D301K Metal Oxide Varistors MVR Series MERITEK MVR53D301K datasheet
07-05-2014 MVR53D331K Metal Oxide Varistors MVR Series MERITEK MVR53D331K datasheet
07-05-2014 MVR53D361K Metal Oxide Varistors MVR Series MERITEK MVR53D361K datasheet
07-05-2014 MVR53D391K Metal Oxide Varistors MVR Series MERITEK MVR53D391K datasheet
07-05-2014 MVR53D431K Metal Oxide Varistors MVR Series MERITEK MVR53D431K datasheet
07-05-2014 MVR53D471K Metal Oxide Varistors MVR Series MERITEK MVR53D471K datasheet
07-05-2014 MVR53D511K Metal Oxide Varistors MVR Series MERITEK MVR53D511K datasheet
07-05-2014 MVR53D561K Metal Oxide Varistors MVR Series MERITEK MVR53D561K datasheet
07-05-2014 MVR53D621K Metal Oxide Varistors MVR Series MERITEK MVR53D621K datasheet
07-05-2014 MVR53D681K Metal Oxide Varistors MVR Series MERITEK MVR53D681K datasheet
07-05-2014 MVR53D751K Metal Oxide Varistors MVR Series MERITEK MVR53D751K datasheet
07-05-2014 MVR53D781K Metal Oxide Varistors MVR Series MERITEK MVR53D781K datasheet
07-05-2014 MVR53D821K Metal Oxide Varistors MVR Series MERITEK MVR53D821K datasheet
07-05-2014 MVR53D911K Metal Oxide Varistors MVR Series MERITEK MVR53D911K datasheet
07-05-2014 MVR53D102K Metal Oxide Varistors MVR Series MERITEK MVR53D102K datasheet
07-05-2014 MVR53D112K Metal Oxide Varistors MVR Series MERITEK MVR53D112K datasheet
07-05-2014 MVR53D122K Metal Oxide Varistors MVR Series MERITEK MVR53D122K datasheet
07-05-2014 13003 13003 NPN Epitaxial Silicon Transis Elite Enterprises 13003 datasheet
07-05-2014 13003 13003 STANDARD · · 65 HSiN 13 HSiN 13003 datasheet
07-05-2014 TBR-PD223 PENDANT MOUNT LED TBR-PD223 6" 6 TBR TBR-PD223 datasheet
07-05-2014 FAN7387 FAN7387 — Self-Oscillated, High-V Fairchild Semiconductor FAN7387 datasheet
07-05-2014 W350ETQ W350ETQ Preface Notebook Computer ETC W350ETQ datasheet
07-05-2014 JCS640 R N 沟道增强型场效应晶体 JILIN SINO-MICROELECTRONICS JCS640 datasheet
07-05-2014 JCS640C R N 沟道增强型场效应晶体 JILIN SINO-MICROELECTRONICS JCS640C datasheet
07-05-2014 JCS640F R N 沟道增强型场效应晶体 JILIN SINO-MICROELECTRONICS JCS640F datasheet
07-05-2014 EL2002 ® T UCT ROD ACEMEN t P E a T L E Intersil EL2002 datasheet
07-05-2014 32AV700E OWNER'S MANUAL LCD Colour TV ® 32 Toshiba 32AV700E datasheet
07-05-2014 32AV700T OWNER'S MANUAL LCD Colour TV ® 32 Toshiba 32AV700T datasheet
07-05-2014 32AV700V OWNER'S MANUAL LCD Colour TV ® 32 Toshiba 32AV700V datasheet
07-05-2014 40AV700E OWNER'S MANUAL LCD Colour TV ® 32 Toshiba 40AV700E datasheet
07-05-2014 40AV700T OWNER'S MANUAL LCD Colour TV ® 32 Toshiba 40AV700T datasheet
07-05-2014 40AV700V OWNER'S MANUAL LCD Colour TV ® 32 Toshiba 40AV700V datasheet
07-05-2014 7MBR50SB120-50 SPECIFICATION Device Name Type Nam Fuji Electric 7MBR50SB120-50 datasheet
07-05-2014 W270HSQ W270HSQ Preface Notebook Computer ETC W270HSQ datasheet
07-05-2014 W740SU W740SU Preface Notebook Computer ETC W740SU datasheet
07-05-2014 VN0109 Supertex inc. VN0109 N-Channel En Supertex Inc VN0109 datasheet
07-05-2014 9LPRS525 DATASHEET 56-pin CK505 for Intel S Integrated Device Technology 9LPRS525 datasheet


The site has been moved : DatasheetsPDF.com
Since 2005 - HOME - Link US - All - Contact Us -